Milwaukee Timmerman, WI

3:49 AM CDT on August 23, 2017 (GMT -0500)
Timmerman

Weather History for KMWC - May, 2013

Change the Weather History Date:

Thursday, May 9, 2013

  Actual Average Record
Temperature  
Mean Temperature 55 °F -  
Max Temperature 69 °F 67 °F 85 °F (1965)
Min Temperature 41 °F 45 °F 26 °F (1966)
Degree Days  
Heating Degree Days 10    
Growing Degree Days 5 (Base 50)    
Moisture  
Dew Point 42 °F    
Average Humidity 72    
Maximum Humidity 93    
Minimum Humidity 40    
Precipitation  
Precipitation 0.04 in - - ()
Sea Level Pressure  
Sea Level Pressure 29.95 in    
Wind  
Wind Speed 4 mph (ENE)    
Max Wind Speed 20 mph    
Max Gust Speed 29 mph    
Visibility 10 miles    
Events Rain    
Averages and records for this station are not official NWS values.
T = Trace of Precipitation, MM = Missing Value Source: NWS Daily Summary

Daily Weather History Graph

Daily Weather History Graph

Search for Another Location

Airport or City:

Trip Planner

Search our weather history database for the weather conditions in past years. The results will help you decide how hot, cold, wet, or windy it might be!

Date:

Astronomy

May. 09, 2013 Rise Set
Actual Time 5:35 AM CDT 8:02 PM CDT
Civil Twilight 5:03 AM CDT 8:34 PM CDT
Nautical Twilight 4:23 AM CDT 9:14 PM CDT
Astronomical Twilight 3:38 AM CDT 10:00 PM CDT
Moon 5:20 AM CDT (5/9) 7:57 PM CDT (5/9)
Length of Visible Light 15h 31m
Length of Day
14h 27m
Waning Crescent, 0% of the Moon is Illuminated
May 9
Waning Crescent
May 9
New
May 17
First Quarter
May 24
Full
May 31
Last Quarter

Hourly Weather History & Observations

Time (CDT) Temp. Windchill Dew Point Humidity Pressure Visibility Wind Dir Wind Speed Gust Speed Precip Events Conditions
12:55 AM 51.8 °F - 41.0 °F 67% 29.97 in 10.0 mi Calm Calm - N/A   Clear
1:15 AM 51.8 °F - 41.0 °F 67% 29.97 in 10.0 mi Calm Calm - N/A   Clear
1:35 AM 51.8 °F - 41.0 °F 67% 29.97 in 10.0 mi Calm Calm - N/A   Clear
1:55 AM 51.8 °F - 41.0 °F 67% 29.96 in 10.0 mi Calm Calm - N/A   Clear
2:15 AM 50.0 °F - 41.0 °F 71% 29.96 in 10.0 mi Calm Calm - N/A   Clear
2:55 AM 51.8 °F - 41.0 °F 67% 29.96 in 10.0 mi Calm Calm - N/A   Clear
3:55 AM 51.8 °F - 42.8 °F 71% 29.96 in 10.0 mi Calm Calm - N/A   Clear
4:35 AM 51.8 °F - 44.6 °F 76% 29.95 in 10.0 mi Calm Calm - N/A   Clear
4:55 AM 51.8 °F - 42.8 °F 71% 29.96 in 10.0 mi Calm Calm - N/A   Clear
5:15 AM 53.6 °F - 42.8 °F 67% 29.96 in 10.0 mi Calm Calm - N/A   Clear
6:15 AM 51.8 °F - 42.8 °F 71% 29.97 in 10.0 mi Calm Calm - N/A   Clear
6:45 AM 55.4 °F - 44.6 °F 67% 29.97 in 10.0 mi Calm Calm - N/A   Clear
7:45 AM 60.8 °F - 46.4 °F 59% 29.97 in 10.0 mi Calm Calm - N/A   Clear
8:45 AM 66.2 °F - 46.4 °F 49% 29.96 in 10.0 mi Calm Calm - N/A   Clear
9:45 AM 68.0 °F - 42.8 °F 40% 29.96 in 10.0 mi East 3.5 mph - N/A   Mostly Cloudy
10:45 AM 69.8 °F - 44.6 °F 40% 29.96 in 10.0 mi Calm Calm - N/A   Mostly Cloudy
12:45 PM 69.8 °F - 44.6 °F 40% 29.95 in 10.0 mi SE 4.6 mph - N/A   Overcast
1:45 PM 69.8 °F - 44.6 °F 40% 29.95 in 10.0 mi SE 5.8 mph - N/A   Overcast
2:45 PM 62.6 °F - 53.6 °F 72% 29.94 in 7.0 mi South 5.8 mph - N/A Rain Light Rain
3:45 PM 62.6 °F - 53.6 °F 72% 29.92 in 7.0 mi NE 17.3 mph 23.0 mph N/A   Drizzle
4:45 PM 50.0 °F - 44.6 °F 82% 29.95 in 10.0 mi ENE 5.8 mph - N/A   Overcast
5:50 PM 50.0 °F - 37.4 °F 62% 29.95 in 10.0 mi ENE 6.9 mph - N/A Rain Light Rain
6:45 PM 48.2 °F - 44.6 °F 87% 29.95 in 10.0 mi NE 9.2 mph 21.9 mph N/A Rain Light Rain
7:50 PM 44.6 °F 38.8 °F 42.8 °F 93% 29.95 in 10.0 mi NE 11.5 mph 24.2 mph N/A Rain Light Rain
8:45 PM 44.6 °F 36.6 °F 41.0 °F 87% 29.96 in 7.0 mi NNE 19.6 mph 26.5 mph N/A Rain Light Rain
9:15 PM 42.8 °F 35.4 °F 39.2 °F 87% 29.95 in 10.0 mi NE 15.0 mph 27.6 mph N/A   Light Drizzle
9:35 PM 42.8 °F 35.8 °F 39.2 °F 87% 29.96 in 10.0 mi NE 13.8 mph 20.7 mph N/A   Light Drizzle
9:55 PM 41.0 °F 34.3 °F 39.2 °F 93% 29.95 in 10.0 mi NE 11.5 mph 23.0 mph N/A   Light Drizzle
10:15 PM 41.0 °F 33.1 °F 39.2 °F 93% 29.95 in 10.0 mi NNE 15.0 mph 23.0 mph 0.01 in   Drizzle
10:55 PM 41.0 °F 33.9 °F 37.4 °F 87% 29.94 in 10.0 mi NE 12.7 mph 25.3 mph 0.02 in   Drizzle
11:15 PM 41.0 °F 32.8 °F 37.4 °F 87% 29.93 in 10.0 mi NE 16.1 mph 26.5 mph N/A Rain Rain
11:35 PM 41.0 °F 33.5 °F 37.4 °F 87% 29.93 in 10.0 mi NE 13.8 mph 24.2 mph 0.01 in   Drizzle
11:55 PM 41.0 °F 33.5 °F 37.4 °F 87% 29.94 in 10.0 mi NE 13.8 mph 28.8 mph 0.02 in Rain Rain